STARLINK-30150, 57621

Orbit data source: Space-Track

STARLINK-30150, 57621 is a payload satellite owned by SpaceX/Seattle (US) in LEO that was launched on Fri, 11 Aug 2023 UTC via an FALCON 9 launch vehicle from the Air Force Eastern Test Range (AFETR). Payload-class satellites include a variety of spacecraft equipped with specific instruments for various scientific and technological missions. These include communications satellites like Starlink; space stations such as the ISS; scientific satellites like the Hubble; Earth observation satellites from companies like Planet Labs, Umbra, and HawkEye 360; GPS; miniature CubeSats for education and research; and military/defense satellites.

Loading next visibility...
Identifier
57621, 2023-119V
Orbit
LEO
Country
Flag of USUS
Related business
Manufacturer
SpaceX/Seattle
Mission
Operational Commercial Communications
Bus & Motor
STARLINK V2M, Unknown motor
Mass
730 kg wet, ~700 kg dry
Launch date (UTC)
2023-08-11 (3 years ago)
Launch vehicle
FALCON 9
Launch site
Air Force Eastern Test Range (AFETR)
Object type
Payload
Rocket body
Debris
Shape & HBR
Box + 2 Pan, 17.7 m
Radar Cross Section
33.884 m², Large (>1 m²)

Expand to show TLE details & history
Last TLE update: 19 hours ago

TLE from 19 hours ago
0 STARLINK-30150
1 57621U 23119V   26094.60314769 -.00008515  00000-0 -30771-3 0  9996
2 57621  43.0012 294.8791 0000737 246.8884 113.1890 15.26785285147059
Epoch: 2026-04-04T14:28Z
TLE epoch observation values (Epoch: 2026-04-04T14:28:31.960Z)
Latitude
Longitude
-115.17462°
Altitude
485.405 km
Speed
7.624 km/s
True Right ascension
19h 39m 30s
True Declination
0° 00' 00"
Sunlit
Object was in daylight at epoch
Visualization orbit readout
Latitude
Unknown
Longitude
Unknown
Altitude
Unknown
Speed
Unknown
Apparent Right ascension
Unknown
Apparent Declination
Unknown
Sunlit
N/A
Visualization observer readout
Local Sidereal Time
15:29:04
Azimuth
Unknown
Elevation
Unknown
Doppler factor
Unknown
Orbital elements
Apogee altitude
487.88 km
Perigee altitude
486.868 km
Semi-major axis
6,865.511 km
Eccentricity
0.00007
Inclination
43.0012°
RAAN
294.8791°
Arg. of periapsis
246.8884°
True anomaly
113.19676°
Mean anomaly
113.189°
Eccentric anomaly
113.19288°
Mean motion
3.81535 °/min
Orbital period
94.36 mins
BSTAR
-0.00030771
Loading maneuver chart data...
Computing Atmospheric mass density...
Loading historical data...
Loading historical data...
Loading historical data...
Loading historical data...
Loading historical data...
Loading historical data...
Loading historical data...

Documentation

Showing up to 5 results
|